Regional Weather Roundup
Issued by NWS Albany, NY

Home | Current Version | Previous Version | Graphics & Text | Print | Product List | Glossary On
Versions: 1 2 3 4 5 6 7 8 9 10 11 12 13 14 15 16 17 18 19 20 21 22 23 24 25 26 27 28
000
ASUS41 KALY 020010
RWRALY

NEW YORK STATE HOURLY WEATHER ROUNDUP
NATIONAL WEATHER SERVICE ALBANY NY
800 PM EDT SUN MAY 01 2016

NOTE: "FAIR" INDICATES FEW OR NO CLOUDS BELOW 12,000 FEET WITH NO
SIGNIFICANT WEATHER AND/OR NO OBSTRUCTIONS TO VISIBILITY.

NYZ032-033-038>043-046>054-057>066-NYZ062>081-082-084-020100-
EAST


CITY           SKY/WX    TMP DP  RH WIND       PRES   REMARKS
ALBANY         LGT RAIN  45  39  79 VRB3      30.09F
GLENS FALLS    CLOUDY    47  41  80 S7        30.09S
POUGHKEEPSIE   CLOUDY    46  41  82 E6        30.11S
NEWBURGH       CLOUDY    46  46 100 SE8       30.11S
MONTGOMERY     CLOUDY    47  45  93 CALM      30.09S
WHITE PLAINS   CLOUDY    42  41  96 E9G20     30.10S FOG
ISLIP          DRIZZLE   43  40  89 NE7       30.11F FOG
NEW YORK CITY  CLOUDY    48  44  86 NE13      30.10S FOG
CENTRAL PARK   CLOUDY    47  44  90 NE9       30.13R FOG
$$

NYZ005>009-017-018-044>046-055-056-020100-
CENTRAL


CITY           SKY/WX    TMP DP  RH WIND       PRES   REMARKS
FULTON         LGT RAIN  49  46  90 E5        29.96R
SYRACUSE       DRIZZLE   47  45  93 E8        29.96R
ROME           LGT RAIN  44  44 100 E9        30.02S FOG
ELMIRA         CLOUDY    53  45  74 S7        29.97R
BINGHAMTON     CLOUDY    44  43  96 S9        29.99S
MONTICELLO     CLOUDY    43  43 100 SE9       30.07S
$$

NYZ026>034-041>043-087-020100-
NORTH


CITY           SKY/WX    TMP DP  RH WIND       PRES   REMARKS
WATERTOWN      LGT RAIN  47  46  97 NE8       30.00R FOG
FORT DRUM      NOT AVBL
MASSENA        LGT RAIN  46  44  93 NE6       30.06F FOG
SARANAC LAKE   CLOUDY    42  38  85 CALM      30.00F FOG
PLATTSBURGH    LGT RAIN  46  44  93 SE7       30.08S
$$

NYZ001>004-010>016-019>021-085-020100-
WEST


CITY           SKY/WX    TMP DP  RH WIND       PRES   REMARKS
NIAGARA FALLS  CLOUDY    46  43  89 NE12      29.99R FOG
BUFFALO        CLOUDY    45  44  97 N8        29.98R FOG
DUNKIRK        CLOUDY    45  45 100 CALM      30.00R FOG
JAMESTOWN      CLOUDY    46  45  93 N6        29.97R VSB 1/2
WELLSVILLE     CLOUDY    55  52  89 S6        29.96R
ROCHESTER      FOG       45  45 100 N8        29.97R VSB 1/2
PENN YAN       CLOUDY    55  50  83 SW7       29.95R
$$

             KEY
       WCI = WIND CHILL INDEX
       VSB = VISIBILITY
       HX  = HEAT INDEX
$$




USA.gov is the U.S. government's official web portal to all federal, state and local government web resources and services.